K2YYD-2 Weather Reports


time (UTC)temp
F
wind
direction
speed
knots
gust
knots
rain 1hr
in
rain 24hr
in
rain mn
in
humidity
%
barometer
mb
20260506024959 61 163 3.5 8.7 0.00 0.00 0.00 79 1007.9
20260506024759 61 198 3.5 8.7 0.00 0.00 0.00 79 1007.8
20260506024559 61 191 3.5 10.4 0.00 0.00 0.00 79 1007.9
20260506024359 61 258 3.5 10.4 0.00 0.00 0.00 79 1007.9
20260506024159 61 168 4.3 10.4 0.00 0.00 0.00 78 1007.9
20260506023959 61 225 4.3 10.4 0.00 0.00 0.00 78 1007.9
20260506023800 62 181 4.3 10.4 0.00 0.00 0.00 78 1007.9
20260506023600 62 173 4.3 10.4 0.00 0.00 0.00 78 1007.9
20260506023359 62 210 4.3 8.7 0.00 0.00 0.00 77 1007.9
20260506023200 62 163 4.3 7.8 0.00 0.00 0.00 77 1007.9
20260506023000 62 143 3.5 7.8 0.00 0.00 0.00 77 1007.9
20260506022759 62 68 4.3 7.8 0.00 0.00 0.00 77 1007.9
20260506022600 62 140 4.3 7.8 0.00 0.00 0.00 77 1007.9
20260506022359 61 159 4.3 10.4 0.00 0.00 0.00 76 1007.8
20260506022159 61 171 4.3 10.4 0.00 0.00 0.00 76 1007.9
20260506021957 61 218 4.3 10.4 0.00 0.00 0.00 76 1007.8
20260506021753 61 129 3.5 10.4 0.00 0.00 0.00 76 1007.9
20260506021553 61 164 3.5 10.4 0.00 0.00 0.00 76 1007.8
20260506021354 61 192 3.5 8.7 0.00 0.00 0.00 76 1007.8
20260506021150 61 218 3.5 8.7 0.00 0.00 0.00 76 1007.9
20260506020950 61 197 3.5 7.8 0.00 0.00 0.00 76 1008.0
20260506020748 61 185 4.3 7.8 0.00 0.00 0.00 76 1007.9
20260506020548 62 180 3.5 7.8 0.00 0.00 0.00 75 1007.9
20260506020347 62 163 3.5 7.8 0.00 0.00 0.00 75 1007.9
20260506020147 62 183 3.5 7.8 0.00 0.00 0.00 75 1007.9
20260506015948 62 180 3.5 7.8 0.00 0.00 0.00 75 1007.9
20260506015748 62 206 3.5 7.8 0.00 0.00 0.00 75 1007.9
20260506015548 62 169 4.3 7.8 0.00 0.00 0.00 75 1007.9
20260506015347 62 197 4.3 7.8 0.00 0.00 0.00 75 1007.8
20260506015148 62 175 4.3 7.8 0.00 0.00 0.00 75 1007.8
20260506014947 62 163 4.3 8.7 0.00 0.00 0.00 75 1007.8
20260506014748 62 142 4.3 10.4 0.00 0.00 0.00 75 1007.7
20260506014548 62 179 4.3 10.4 0.00 0.00 0.00 75 1007.8
20260506014348 62 175 3.5 10.4 0.00 0.00 0.00 75 1007.7
20260506014148 62 178 3.5 10.4 0.00 0.00 0.00 75 1007.6
20260506013948 62 187 3.5 10.4 0.00 0.00 0.00 75 1007.6
20260506013748 62 172 3.5 7.8 0.00 0.00 0.00 75 1007.6
20260506013548 62 177 4.3 11.3 0.00 0.00 0.00 75 1007.6
20260506013348 62 276 4.3 11.3 0.00 0.00 0.00 74 1007.6
20260506013148 62 178 5.2 11.3 0.00 0.00 0.00 74 1007.5
20260506012948 62 176 5.2 11.3 0.00 0.00 0.00 74 1007.5
20260506012748 62 177 5.2 11.3 0.00 0.00 0.00 74 1007.5
20260506012548 62 268 5.2 10.4 0.00 0.00 0.00 74 1007.5
20260506012348 62 180 5.2 10.4 0.00 0.00 0.00 73 1007.5
20260506012148 62 173 5.2 10.4 0.00 0.00 0.00 73 1007.4
20260506011949 63 174 5.2 11.3 0.00 0.00 0.00 73 1007.4
20260506011748 63 164 5.2 11.3 0.00 0.00 0.00 73 1007.4
20260506011548 63 178 4.3 11.3 0.00 0.00 0.00 72 1007.4
20260506011349 63 163 4.3 11.3 0.00 0.00 0.00 72 1007.3
20260506011149 63 183 4.3 11.3 0.00 0.00 0.00 72 1007.4
20260506010949 63 191 4.3 7.8 0.00 0.00 0.00 72 1007.3
20260506010748 63 159 4.3 7.8 0.00 0.00 0.00 72 1007.3
20260506010548 63 154 4.3 7.8 0.00 0.00 0.00 72 1007.3
20260506010349 63 166 4.3 8.7 0.00 0.00 0.00 72 1007.3
20260506010148 63 167 4.3 8.7 0.00 0.00 0.00 72 1007.3
20260506005948 63 185 4.3 8.7 0.00 0.00 0.00 72 1007.3
20260506005749 63 163 4.3 8.7 0.00 0.00 0.00 72 1007.2
20260506005548 63 180 4.3 8.7 0.00 0.00 0.00 72 1007.1
20260506005346 63 168 4.3 7.8 0.00 0.00 0.00 72 1007.1
20260506005143 63 168 3.5 7.8 0.00 0.00 0.00 72 1007.1
20260506004943 63 182 3.5 8.7 0.00 0.00 0.00 71 1007.1
20260506004743 64 168 4.3 10.4 0.00 0.00 0.00 71 1007.1
20260506004542 64 216 3.5 10.4 0.00 0.00 0.00 70 1007.1
20260506004343 64 168 3.5 10.4 0.00 0.00 0.00 70 1007.1
20260506004143 64 166 3.5 10.4 0.00 0.00 0.00 70 1007.0
20260506003943 64 216 3.5 10.4 0.00 0.00 0.00 69 1006.9
20260506003743 64 168 3.5 7.8 0.00 0.00 0.00 69 1007.0
20260506003543 64 230 3.5 7.8 0.00 0.00 0.00 69 1007.0
20260506003343 64 175 3.5 7.8 0.00 0.00 0.00 69 1006.9
20260506003143 64 250 3.5 7.8 0.00 0.00 0.00 69 1006.9
20260506002943 64 171 3.5 7.8 0.00 0.00 0.00 68 1006.9
20260506002826 65 163 3.5 7.8 0.00 0.00 0.00 68 1006.8
20260506002601 65 201 3.5 7.8 0.00 0.00 0.00 68 1006.8
20260506002343 65 171 3.5 7.8 0.00 0.00 0.00 68 1006.8
20260506002143 65 186 3.5 7.8 0.00 0.00 0.00 68 1006.8
20260506001943 65 151 3.5 7.8 0.00 0.00 0.00 68 1006.8
20260506001743 65 290 3.5 7.8 0.00 0.00 0.00 68 1006.7
20260506001543 65 178 3.5 7.8 0.00 0.00 0.00 68 1006.8
20260506001343 65 169 3.5 7.8 0.00 0.00 0.00 68 1006.8
20260506001143 65 183 3.5 10.4 0.00 0.00 0.00 67 1006.7
20260506000943 65 177 3.5 10.4 0.00 0.00 0.00 68 1006.7
20260506000743 64 181 3.5 10.4 0.00 0.00 0.00 68 1006.7
20260506000543 65 184 3.5 10.4 0.00 0.00 0.00 68 1006.7
20260506000344 65 186 3.5 10.4 0.00 0.00 0.00 67 1006.6
20260506000144 65 176 3.5 7.0 0.00 0.00 0.00 68 1006.6
20260505235943 65 193 3.5 7.0 0.00 0.00 0.00 67 1006.5
20260505235743 65 74 2.6 7.0 0.00 0.00 0.00 67 1006.6
20260505235543 65 158 3.5 7.0 0.00 0.00 0.00 67 1006.5
20260505235344 65 174 3.5 7.0 0.00 0.00 0.00 67 1006.5
20260505235143 65 55 2.6 7.0 0.00 0.00 0.00 67 1006.5
20260505234943 65 279 2.6 7.8 0.00 0.00 0.00 67 1006.6
20260505234744 65 167 3.5 7.8 0.00 0.00 0.00 67 1006.5
20260505234559 65 154 3.5 7.8 0.00 0.00 0.00 67 1006.5
20260505234343 65 243 3.5 7.8 0.00 0.00 0.00 67 1006.4
20260505234141 65 217 3.5 7.8 0.00 0.00 0.00 67 1006.3
20260505233940 65 173 4.3 8.7 0.00 0.00 0.00 67 1006.3
20260505233741 65 149 4.3 8.7 0.00 0.00 0.00 66 1006.2
20260505233542 65 186 4.3 8.7 0.00 0.00 0.00 66 1006.2
20260505233340 65 172 4.3 8.7 0.00 0.00 0.00 66 1006.3
20260505233140 65 183 4.3 8.7 0.00 0.00 0.00 66 1006.2
20260505232941 65 176 3.5 8.7 0.00 0.00 0.00 66 1006.2
20260505232741 65 201 3.5 8.7 0.00 0.00 0.00 66 1006.1
20260505232541 65 172 3.5 8.7 0.00 0.00 0.00 66 1006.0
20260505232341 65 268 3.5 8.7 0.00 0.00 0.00 66 1006.1
20260505232141 65 245 2.6 6.1 0.00 0.00 0.00 66 1006.0
20260505231941 65 182 2.6 6.1 0.00 0.00 0.00 66 1006.0
20260505231741 65 279 2.6 7.0 0.00 0.00 0.00 66 1006.0
20260505231541 65 147 3.5 7.0 0.00 0.00 0.00 66 1006.0
20260505231341 65 215 3.5 7.0 0.00 0.00 0.00 66 1005.9
20260505231141 65 176 3.5 7.0 0.00 0.00 0.00 66 1005.9
20260505230941 65 171 4.3 9.6 0.00 0.00 0.00 66 1005.9
20260505230741 65 198 4.3 9.6 0.00 0.00 0.00 66 1005.9
20260505230541 65 172 4.3 9.6 0.00 0.00 0.00 66 1005.9
20260505230341 65 205 3.5 9.6 0.00 0.00 0.00 66 1005.8
20260505230141 65 168 3.5 9.6 0.00 0.00 0.00 66 1005.8
20260505225941 65 175 3.5 9.6 0.00 0.00 0.00 65 1005.8
20260505225741 66 180 3.5 9.6 0.00 0.00 0.00 65 1005.7
20260505225541 66 217 2.6 7.0 0.00 0.00 0.00 65 1005.7
20260505225341 66 212 3.5 7.0 0.00 0.00 0.00 64 1005.8
20260505225142 66 172 3.5 7.0 0.00 0.00 0.00 64 1005.8
20260505224942 66 169 3.5 7.8 0.00 0.00 0.00 64 1005.8
20260505224741 66 243 3.5 13.0 0.00 0.00 0.00 64 1005.8
20260505224541 66 189 3.5 13.0 0.00 0.00 0.00 64 1005.8
20260505224342 66 209 4.3 13.0 0.00 0.00 0.00 64 1005.9
20260505224142 66 180 5.2 15.6 0.00 0.00 0.00 64 1005.9
20260505223941 67 179 5.2 15.6 0.00 0.00 0.00 63 1005.9
20260505223742 67 179 5.2 15.6 0.00 0.00 0.00 63 1005.8
20260505223542 67 182 5.2 15.6 0.00 0.00 0.00 62 1005.7
20260505223342 67 172 5.2 15.6 0.00 0.00 0.00 61 1005.7
20260505223142 67 185 5.2 14.8 0.00 0.00 0.00 61 1005.6
20260505222942 67 158 5.2 11.3 0.00 0.00 0.00 61 1005.7
20260505222739 68 187 5.2 11.3 0.00 0.00 0.00 61 1005.6
20260505222539 68 172 5.2 11.3 0.00 0.00 0.00 61 1005.5
20260505222339 68 183 5.2 11.3 0.00 0.00 0.00 60 1005.5
20260505222138 68 185 5.2 11.3 0.00 0.00 0.00 60 1005.6
20260505221938 68 193 5.2 10.4 0.00 0.00 0.00 60 1005.6
20260505221739 68 152 5.2 10.4 0.00 0.00 0.00 60 1005.6
20260505221536 68 194 5.2 10.4 0.00 0.00 0.00 60 1005.5
20260505221335 68 174 5.2 11.3 0.00 0.00 0.00 60 1005.5
20260505221135 68 80 5.2 11.3 0.00 0.00 0.00 60 1005.5
20260505220936 68 202 5.2 11.3 0.00 0.00 0.00 60 1005.5
20260505220736 68 187 5.2 11.3 0.00 0.00 0.00 60 1005.6
20260505220536 69 196 5.2 11.3 0.00 0.00 0.00 60 1005.6
20260505220335 69 124 5.2 11.3 0.00 0.00 0.00 60 1005.6
20260505220137 69 298 5.2 10.4 0.00 0.00 0.00 60 1005.6
20260505215936 69 152 5.2 10.4 0.00 0.00 0.00 60 1005.5
20260505215736 69 162 5.2 10.4 0.00 0.00 0.00 59 1005.5
20260505215536 69 190 5.2 10.4 0.00 0.00 0.00 59 1005.5
20260505215336 69 194 5.2 10.4 0.00 0.00 0.00 60 1005.6
20260505215136 69 185 5.2 11.3 0.00 0.00 0.00 60 1005.6
20260505214937 69 151 5.2 11.3 0.00 0.00 0.00 59 1005.7
20260505214736 69 183 5.2 11.3 0.00 0.00 0.00 59 1005.6
20260505214536 69 177 5.2 11.3 0.00 0.00 0.00 60 1005.5
20260505214337 69 182 5.2 11.3 0.00 0.00 0.00 59 1005.5
20260505214136 69 182 4.3 10.4 0.00 0.00 0.00 60 1005.6
20260505213936 69 184 4.3 10.4 0.00 0.00 0.00 60 1005.6
20260505213736 69 173 4.3 9.6 0.00 0.00 0.00 60 1005.6
20260505213537 69 200 3.5 8.7 0.00 0.00 0.00 60 1005.6
20260505213337 69 208 4.3 9.6 0.00 0.00 0.00 60 1005.6
20260505213136 69 205 4.3 9.6 0.00 0.00 0.00 60 1005.6
20260505212936 69 281 4.3 10.4 0.00 0.00 0.00 60 1005.5
20260505212737 68 185 5.2 11.3 0.00 0.00 0.00 60 1005.5
20260505212548 68 281 5.2 11.3 0.00 0.00 0.00 61 1005.4
20260505212336 68 202 5.2 11.3 0.00 0.00 0.00 61 1005.4
20260505212137 68 195 5.2 11.3 0.00 0.00 0.00 61 1005.5
20260505211933 68 191 5.2 11.3 0.00 0.00 0.00 61 1005.3
20260505211734 68 163 5.2 9.6 0.00 0.00 0.00 61 1005.4
20260505211534 68 194 5.2 9.6 0.00 0.00 0.00 61 1005.3
20260505211333 68 194 5.2 9.6 0.00 0.00 0.00 62 1005.3
20260505211134 68 183 4.3 9.6 0.00 0.00 0.00 62 1005.3
20260505210934 68 177 5.2 10.4 0.00 0.00 0.00 62 1005.3
20260505210734 68 191 5.2 10.4 0.00 0.00 0.00 63 1005.3
20260505210534 68 183 5.2 10.4 0.00 0.00 0.00 63 1005.4
20260505210333 68 221 4.3 10.4 0.00 0.00 0.00 63 1005.4
20260505210134 68 192 5.2 10.4 0.00 0.00 0.00 63 1005.4
20260505205934 68 150 4.3 8.7 0.00 0.00 0.00 63 1005.2
20260505205734 68 186 4.3 9.6 0.00 0.00 0.00 62 1005.4
20260505205534 68 212 4.3 9.6 0.00 0.00 0.00 63 1005.4
20260505205334 68 160 4.3 9.6 0.00 0.00 0.00 63 1005.4
20260505205134 68 174 4.3 9.6 0.00 0.00 0.00 63 1005.4
20260505204934 68 176 4.3 9.6 0.00 0.00 0.00 63 1005.4
20260505204734 68 194 3.5 8.7 0.00 0.00 0.00 63 1005.5
20260505204534 68 160 4.3 8.7 0.00 0.00 0.00 63 1005.4
20260505204334 68 195 3.5 8.7 0.00 0.00 0.00 63 1005.5
20260505204134 68 183 3.5 8.7 0.00 0.00 0.00 63 1005.5
20260505203934 68 187 3.5 8.7 0.00 0.00 0.00 62 1005.4
20260505203734 68 188 3.5 8.7 0.00 0.00 0.00 62 1005.4
20260505203535 68 219 4.3 8.7 0.00 0.00 0.00 63 1005.5
20260505203334 68 174 4.3 8.7 0.00 0.00 0.00 63 1005.4
20260505203135 68 182 4.3 10.4 0.00 0.00 0.00 63 1005.4
20260505202935 68 180 5.2 10.4 0.00 0.00 0.00 63 1005.4
20260505202735 68 186 5.2 10.4 0.00 0.00 0.00 63 1005.5
20260505202544 68 194 5.2 10.4 0.00 0.00 0.00 63 1005.5
20260505202134 68 181 5.2 10.4 0.00 0.00 0.00 63 1005.6
20260505201934 69 277 5.2 10.4 0.00 0.00 0.00 62 1005.6
20260505201732 69 152 5.2 10.4 0.00 0.00 0.00 62 1005.6
20260505201532 69 149 4.3 9.6 0.00 0.00 0.00 62 1005.6
20260505201329 69 166 4.3 8.7 0.00 0.00 0.00 62 1005.6
20260505201129 69 193 4.3 8.7 0.00 0.00 0.00 62 1005.6
20260505200928 70 178 3.5 8.7 0.00 0.00 0.00 60 1005.7
20260505200726 70 171 3.5 7.8 0.00 0.00 0.00 60 1005.6
20260505200526 70 317 3.5 8.7 0.00 0.00 0.00 61 1005.6
20260505200327 70 194 3.5 8.7 0.00 0.00 0.00 60 1005.6
20260505200123 70 138 3.5 8.7 0.00 0.00 0.00 60 1005.7
20260505195923 70 80 3.5 8.7 0.00 0.00 0.00 62 1005.7
20260505195722 70 184 3.5 8.7 0.00 0.00 0.00 61 1005.8
20260505195523 71 155 3.5 9.6 0.00 0.00 0.00 60 1005.7
20260505195323 71 194 3.5 9.6 0.00 0.00 0.00 60 1005.7
20260505195123 71 158 3.5 9.6 0.00 0.00 0.00 60 1005.7
20260505194923 71 164 3.5 9.6 0.00 0.00 0.00 60 1005.8
20260505194723 71 189 3.5 9.6 0.00 0.00 0.00 59 1005.8
20260505194523 71 281 3.5 7.8 0.00 0.00 0.00 61 1006.0
20260505194323 70 250 3.5 7.8 0.00 0.00 0.00 60 1005.9
20260505194122 70 299 3.5 7.8 0.00 0.00 0.00 61 1006.0
20260505193922 70 156 3.5 7.8 0.00 0.00 0.00 59 1005.9
20260505193723 70 277 3.5 6.1 0.00 0.00 0.00 61 1006.0
20260505193523 70 74 3.5 7.8 0.00 0.00 0.00 61 1005.9
20260505193323 70 214 3.5 7.8 0.00 0.00 0.00 61 1006.0
20260505193121 70 334 3.5 7.8 0.00 0.00 0.00 61 1006.1
20260505192921 69 106 3.5 7.8 0.00 0.00 0.00 62 1006.1
20260505192722 69 181 3.5 7.8 0.00 0.00 0.00 62 1006.2
20260505192522 69 324 3.5 7.8 0.00 0.00 0.00 62 1006.2
20260505192322 69 210 3.5 7.8 0.00 0.00 0.00 62 1006.2
20260505192122 69 160 3.5 7.8 0.00 0.00 0.00 63 1006.3
20260505191921 69 158 3.5 7.8 0.00 0.00 0.00 63 1006.3
20260505191721 69 182 3.5 7.8 0.00 0.00 0.00 62 1006.3
20260505191521 69 159 3.5 7.0 0.00 0.00 0.00 62 1006.5
20260505191322 69 182 3.5 7.0 0.00 0.00 0.00 63 1006.5
20260505191122 69 188 3.5 7.0 0.00 0.00 0.00 63 1006.4
20260505190921 69 178 3.5 7.8 0.00 0.00 0.00 63 1006.4
20260505190722 69 174 3.5 9.6 0.00 0.00 0.00 63 1006.6
20260505190520 69 293 4.3 9.6 0.00 0.00 0.00 63 1006.5
20260505190321 69 187 4.3 9.6 0.00 0.00 0.00 64 1006.6
20260505190121 69 179 4.3 9.6 0.00 0.00 0.00 63 1006.5
20260505185920 69 170 4.3 13.0 0.00 0.00 0.00 63 1006.6
20260505185721 69 279 4.3 13.0 0.00 0.00 0.00 63 1006.8
20260505185521 69 184 4.3 13.0 0.00 0.00 0.00 63 1006.7
20260505185318 69 181 5.2 13.0 0.00 0.00 0.00 63 1006.7
20260505185115 69 196 5.2 13.0 0.00 0.00 0.00 63 1006.7
20260505184915 69 175 4.3 9.6 0.00 0.00 0.00 63 1006.7
20260505184715 69 170 4.3 9.6 0.00 0.00 0.00 63 1006.9
20260505184515 70 188 4.3 9.6 0.00 0.00 0.00 63 1006.9
20260505184314 70 251 3.5 9.6 0.00 0.00 0.00 62 1006.8
20260505184115 70 304 3.5 8.7 0.00 0.00 0.00 61 1006.9
20260505183915 70 182 3.5 8.7 0.00 0.00 0.00 61 1007.0
20260505183715 70 202 3.5 8.7 0.00 0.00 0.00 63 1007.0
20260505183514 70 114 3.5 8.7 0.00 0.00 0.00 62 1007.0
20260505183315 70 186 3.5 8.7 0.00 0.00 0.00 62 1007.0
20260505183115 70 165 3.5 7.8 0.00 0.00 0.00 63 1007.1
20260505182915 70 315 3.5 7.8 0.00 0.00 0.00 64 1007.0
20260505182715 70 265 3.5 6.1 0.00 0.00 0.00 63 1007.0
20260505182315 70 135 3.5 7.0 0.00 0.00 0.00 62 1007.0
20260505182115 70 285 3.5 7.0 0.00 0.00 0.00 62 1007.0
20260505181915 70 276 3.5 7.0 0.00 0.00 0.00 63 1007.1
20260505181715 70 142 2.6 7.0 0.00 0.00 0.00 64 1007.0
20260505181515 70 124 2.6 7.0 0.00 0.00 0.00 63 1007.0
20260505181315 70 140 2.6 6.1 0.00 0.00 0.00 63 1007.1
20260505181115 70 317 2.6 6.1 0.00 0.00 0.00 64 1007.1
20260505180915 70 166 2.6 7.0 0.00 0.00 0.00 63 1007.1
20260505180716 70 276 3.5 7.0 0.00 0.00 0.00 63 1007.1
20260505180516 70 130 3.5 7.0 0.00 0.00 0.00 63 1007.1
20260505180315 69 274 2.6 7.0 0.00 0.00 0.00 64 1007.1
20260505180115 69 100 2.6 7.0 0.00 0.00 0.00 64 1007.1
20260505175915 69 191 2.6 7.0 0.00 0.00 0.00 64 1007.1
20260505175715 69 186 2.6 7.0 0.00 0.00 0.00 64 1007.2
20260505175516 69 320 2.6 6.1 0.00 0.00 0.00 64 1007.2
20260505175316 69 124 2.6 6.1 0.00 0.00 0.00 64 1007.2
20260505175115 69 104 2.6 6.1 0.00 0.00 0.00 64 1007.3
20260505174912 69 155 2.6 5.2 0.00 0.00 0.00 64 1007.3
20260505174713 69 302 2.6 5.2 0.00 0.00 0.00 64 1007.3
20260505174510 69 114 2.6 7.0 0.00 0.00 0.00 65 1007.3
20260505174307 69 117 3.5 7.0 0.00 0.00 0.00 65 1007.3
20260505174109 69 91 2.6 7.0 0.00 0.00 0.00 65 1007.3
20260505173905 69 204 2.6 7.0 0.00 0.00 0.00 65 1007.3
20260505173705 69 167 3.5 7.0 0.00 0.00 0.00 64 1007.3
20260505173534 69 169 2.6 7.0 0.00 0.00 0.00 64 1007.3
20260505173305 69 196 2.6 7.0 0.00 0.00 0.00 65 1007.4
20260505173104 69 182 3.5 7.0 0.00 0.00 0.00 64 1007.4
20260505172905 69 184 3.5 7.0 0.00 0.00 0.00 64 1007.4
20260505172705 69 37 3.5 7.0 0.00 0.00 0.00 65 1007.3
20260505172505 68 119 3.5 7.0 0.00 0.00 0.00 66 1007.4
20260505172306 69 198 4.3 7.0 0.00 0.00 0.00 66 1007.4
20260505172106 69 187 3.5 7.0 0.00 0.00 0.00 65 1007.4
20260505171905 69 196 3.5 7.0 0.00 0.00 0.00 64 1007.4
20260505171706 69 167 3.5 7.0 0.00 0.00 0.00 64 1007.4
20260505171506 69 287 4.3 7.8 0.00 0.00 0.00 64 1007.4
20260505171305 69 174 4.3 7.8 0.00 0.00 0.00 65 1007.4
20260505171106 70 182 4.3 7.8 0.00 0.00 0.00 64 1007.4
20260505170906 70 182 3.5 7.8 0.00 0.00 0.00 63 1007.4
20260505170705 71 182 3.5 7.8 0.00 0.00 0.00 63 1007.5
20260505170505 71 179 2.6 7.8 0.00 0.00 0.00 62 1007.5
20260505170306 71 196 2.6 7.0 0.00 0.00 0.00 62 1007.5
20260505170106 71 124 2.6 7.0 0.00 0.00 0.00 61 1007.5
20260505165906 71 181 2.6 7.0 0.00 0.00 0.00 62 1007.5
20260505165705 71 272 2.6 7.0 0.00 0.00 0.00 62 1007.5
20260505165505 71 177 2.6 7.0 0.00 0.00 0.00 62 1007.5
20260505165306 71 299 2.6 7.0 0.00 0.00 0.00 61 1007.5
20260505165106 71 66 3.5 7.8 0.00 0.00 0.00 61 1007.5
20260505164906 71 179 3.5 7.8 0.00 0.00 0.00 61 1007.5
20260505164705 71 253 3.5 7.8 0.00 0.00 0.00 61 1007.6
20260505164506 70 211 3.5 7.8 0.00 0.00 0.00 62 1007.5
20260505164305 70 178 3.5 7.8 0.00 0.00 0.00 61 1007.6
20260505164106 71 187 2.6 6.1 0.00 0.00 0.00 61 1007.6
20260505163905 71 167 2.6 5.2 0.00 0.00 0.00 61 1007.6
20260505163704 71 261 2.6 5.2 0.00 0.00 0.00 60 1007.7
20260505163504 71 303 2.6 5.2 0.00 0.00 0.00 61 1007.7
20260505163305 71 125 3.5 7.0 0.00 0.00 0.00 61 1007.7
20260505163105 71 267 2.6 7.0 0.00 0.00 0.00 61 1007.8
20260505162905 71 102 2.6 7.0 0.00 0.00 0.00 61 1007.8
20260505162702 71 103 3.5 7.0 0.00 0.00 0.00 59 1007.8
20260505162502 71 12 2.6 7.8 0.00 0.00 0.00 60 1007.9
20260505162301 71 130 3.5 7.8 0.00 0.00 0.00 61 1007.9
20260505162101 71 171 3.5 7.8 0.00 0.00 0.00 61 1007.9
20260505161901 71 184 3.5 7.8 0.00 0.00 0.00 61 1007.9
20260505161702 71 167 3.5 7.8 0.00 0.00 0.00 62 1007.9
20260505161502 71 183 3.5 7.8 0.00 0.00 0.00 61 1007.9
20260505161302 71 174 3.5 7.0 0.00 0.00 0.00 61 1007.9
20260505161102 71 180 3.5 7.0 0.00 0.00 0.00 61 1008.0
20260505160902 71 171 3.5 7.0 0.00 0.00 0.00 62 1007.9
20260505160702 71 150 3.5 7.0 0.00 0.00 0.00 59 1007.9
20260505160502 71 189 3.5 7.0 0.00 0.00 0.00 60 1007.9
20260505160303 71 108 3.5 7.0 0.00 0.00 0.00 62 1007.9
20260505153303 70 154 2.6 5.2 0.00 0.00 0.00 62 1008.0
20260505153103 70 212 2.6 5.2 0.00 0.00 0.00 61 1008.1
20260505152902 70 189 2.6 5.2 0.00 0.00 0.00 62 1008.1
20260505152703 70 324 2.6 5.2 0.00 0.00 0.00 61 1008.2
20260505152503 70 200 2.6 6.1 0.00 0.00 0.00 62 1008.3
20260505152305 69 178 2.6 6.1 0.00 0.00 0.00 62 1008.3
20260505152102 69 204 2.6 7.0 0.00 0.00 0.00 63 1008.3
20260505151902 69 78 2.6 7.0 0.00 0.00 0.00 62 1008.3
20260505151700 69 289 2.6 7.0 0.00 0.00 0.00 63 1008.4
20260505151459 69 294 2.6 7.0 0.00 0.00 0.00 63 1008.4
20260505151300 69 135 2.6 7.0 0.00 0.00 0.00 63 1008.4
20260505151100 69 197 2.6 5.2 0.00 0.00 0.00 63 1008.4
20260505150900 70 173 2.6 5.2 0.00 0.00 0.00 63 1008.4
20260505150700 70 137 2.6 5.2 0.00 0.00 0.00 63 1008.5
20260505150500 70 289 2.6 5.2 0.00 0.00 0.00 62 1008.5
20260505150300 70 181 2.6 5.2 0.00 0.00 0.00 62 1008.5
20260505140455 69 181 3.5 7.8 0.00 0.00 0.00 62 1008.1
20260505140251 69 263 3.5 7.8 0.00 0.00 0.00 60 1008.1
20260505130247 66 156 1.7 5.2 0.00 0.00 0.00 67 1008.1
20260505125041 64 182 2.6 6.1 0.00 0.00 0.00 70 1008.0
20260505124841 64 260 2.6 6.1 0.00 0.00 0.00 70 1007.9
20260505124640 64 234 2.6 6.1 0.00 0.00 0.00 71 1007.9
20260505124441 64 188 2.6 6.1 0.00 0.00 0.00 71 1007.9
20260505124240 64 267 2.6 5.2 0.00 0.00 0.00 70 1007.8
20260505124041 64 160 1.7 5.2 0.00 0.00 0.00 70 1007.7
20260505123840 64 182 1.7 5.2 0.00 0.00 0.00 71 1007.7
20260505123641 64 169 1.7 5.2 0.00 0.00 0.00 71 1007.7
20260505123441 64 182 1.7 4.3 0.00 0.00 0.00 72 1007.7
20260505123241 64 178 1.7 4.3 0.00 0.00 0.00 72 1007.7
20260505123041 63 272 1.7 4.3 0.00 0.00 0.00 72 1007.7
20260505122840 63 160 1.7 4.3 0.00 0.00 0.00 73 1007.7
20260505122641 63 224 1.7 4.3 0.00 0.00 0.00 73 1007.7
20260505122441 63 283 1.7 4.3 0.00 0.00 0.00 74 1007.7
20260505122241 63 152 1.7 5.2 0.00 0.00 0.00 73 1007.6
20260505122041 62 178 1.7 5.2 0.00 0.00 0.00 74 1007.6
20260505121841 62 179 1.7 5.2 0.00 0.00 0.00 75 1007.6
20260505121641 62 148 1.7 5.2 0.00 0.00 0.00 75 1007.6
20260505121442 62 294 1.7 5.2 0.00 0.00 0.00 76 1007.7
20260505121241 61 170 1.7 5.2 0.00 0.00 0.00 76 1007.7
20260505121041 61 166 1.7 5.2 0.00 0.00 0.00 77 1007.7
20260505120841 61 159 1.7 5.2 0.00 0.00 0.00 77 1007.8
20260505120641 60 207 1.7 4.3 0.00 0.00 0.00 78 1007.8
20260505120441 60 189 1.7 4.3 0.00 0.00 0.00 79 1007.8
20260505120241 60 171 1.7 4.3 0.00 0.00 0.00 80 1007.8
20260505120041 60 152 1.7 4.3 0.00 0.00 0.00 80 1007.9
20260505115842 59 187 1.7 4.3 0.00 0.00 0.00 82 1007.9
20260505115641 59 171 1.7 4.3 0.00 0.00 0.00 82 1007.9
20260505115441 59 179 1.7 4.3 0.00 0.00 0.00 83 1007.9
20260505115241 58 174 1.7 4.3 0.00 0.00 0.00 84 1008.0
20260505115041 58 206 1.7 4.3 0.00 0.00 0.00 84 1007.9
20260505114842 58 183 1.7 3.5 0.00 0.00 0.00 85 1007.9
20260505114641 58 183 1.7 3.5 0.00 0.00 0.00 86 1007.8
20260505114439 57 168 1.7 3.5 0.00 0.00 0.00 87 1007.9
20260505114239 57 180 1.7 3.5 0.00 0.00 0.00 87 1007.8
20260505114039 57 153 0.9 3.5 0.00 0.00 0.00 88 1007.8
20260505113835 57 123 1.7 3.5 0.00 0.00 0.00 88 1007.9
20260505113633 57 167 1.7 3.5 0.00 0.00 0.00 88 1007.9
20260505113506 57 177 1.7 3.5 0.00 0.00 0.00 89 1008.0
20260505113233 56 189 1.7 3.5 0.00 0.00 0.00 89 1008.0
20260505113033 56 163 1.7 3.5 0.00 0.00 0.00 89 1008.1
20260505112833 56 201 1.7 2.6 0.00 0.00 0.00 90 1008.1
20260505112633 56 178 1.7 2.6 0.00 0.00 0.00 90 1008.0
20260505112432 56 173 1.7 2.6 0.00 0.00 0.00 91 1008.0
20260505112233 56 158 1.7 2.6 0.00 0.00 0.00 91 1007.9
20260505112033 56 130 1.7 2.6 0.00 0.00 0.00 91 1007.9
20260505111833 55 163 1.7 2.6 0.00 0.00 0.00 92 1007.9
20260505111632 55 168 0.9 2.6 0.00 0.00 0.00 92 1007.9
20260505111433 55 155 1.7 2.6 0.00 0.00 0.00 92 1007.9
20260505111233 55 0 1.7 2.6 0.00 0.00 0.00 93 1007.9
20260505111030 55 169 1.7 2.6 0.00 0.00 0.00 93 1007.9
20260505110830 55 177 1.7 2.6 0.00 0.00 0.00 93 1007.9
20260505110630 55 166 1.7 2.6 0.00 0.00 0.00 94 1007.9
20260505110430 54 145 0.9 2.6 0.00 0.00 0.00 94 1007.9
20260505110231 54 136 0.9 2.6 0.00 0.00 0.00 94 1007.9
20260505102021 53 181 1.7 2.6 0.00 0.00 0.00 95 1007.3
20260505101823 53 151 1.7 2.6 0.00 0.00 0.00 95 1007.2
20260505101622 53 165 1.7 2.6 0.00 0.00 0.00 96 1007.1
20260505101422 53 148 0.9 2.6 0.00 0.00 0.00 96 1007.1
20260505101222 53 131 1.7 2.6 0.00 0.00 0.00 96 1007.1
20260505101022 53 153 1.7 2.6 0.00 0.00 0.00 96 1007.1
20260505100822 53 147 1.7 2.6 0.00 0.00 0.00 96 1007.0
20260505100623 53 263 1.7 2.6 0.00 0.00 0.00 96 1006.9
20260505100501 53 121 1.7 2.6 0.00 0.00 0.00 96 1006.9
20260505100221 53 185 1.7 2.6 0.00 0.00 0.00 96 1006.9
20260505100022 53 161 1.7 2.6 0.00 0.00 0.00 96 1006.8
20260505095822 53 150 1.7 2.6 0.00 0.00 0.00 96 1006.8
20260505095622 53 160 1.7 2.6 0.00 0.00 0.00 96 1006.7
20260505095422 53 155 1.7 2.6 0.00 0.00 0.00 96 1006.7
20260505095223 52 152 1.7 2.6 0.00 0.00 0.00 96 1006.7
20260505095022 52 158 1.7 2.6 0.00 0.00 0.00 96 1006.8
20260505094822 52 161 1.7 2.6 0.00 0.00 0.00 95 1006.8
20260505094622 52 143 1.7 2.6 0.00 0.00 0.00 95 1006.8
20260505094423 52 139 1.7 2.6 0.00 0.00 0.00 95 1006.8
20260505094222 52 139 1.7 2.6 0.00 0.00 0.00 95 1006.7
20260505094022 52 146 1.7 2.6 0.00 0.00 0.00 95 1006.7
20260505093823 52 150 1.7 2.6 0.00 0.00 0.00 95 1006.8
20260505093625 52 166 1.7 2.6 0.00 0.00 0.00 95 1006.8
20260505093422 52 167 1.7 1.7 0.00 0.00 0.00 95 1006.8
20260505093222 52 161 1.7 1.7 0.00 0.00 0.00 95 1006.8
20260505093023 53 178 1.7 1.7 0.00 0.00 0.00 95 1006.8
20260505092823 53 207 1.7 1.7 0.00 0.00 0.00 95 1006.9
20260505092622 53 163 0.9 1.7 0.00 0.00 0.00 95 1006.8
20260505092422 53 160 0.9 2.6 0.00 0.00 0.00 95 1006.8
20260505092222 53 164 0.9 2.6 0.00 0.00 0.00 95 1006.8
20260505092022 53 0 0.9 2.6 0.00 0.00 0.00 95 1006.9
20260505091823 53 170 1.7 2.6 0.00 0.00 0.00 95 1006.9
20260505091622 53 146 1.7 2.6 0.00 0.00 0.00 95 1006.9
20260505091422 53 167 1.7 2.6 0.00 0.00 0.00 95 1006.9
20260505091221 53 142 1.7 2.6 0.00 0.00 0.00 95 1006.9
20260505091020 53 160 1.7 2.6 0.00 0.00 0.00 95 1007.0
20260505090819 53 176 1.7 2.6 0.00 0.00 0.00 95 1006.9
20260505090620 53 156 1.7 2.6 0.00 0.00 0.00 95 1007.0
20260505090417 53 158 1.7 2.6 0.00 0.00 0.00 95 1007.0
20260505090217 53 166 1.7 2.6 0.00 0.00 0.00 95 1006.9
20260505090016 53 151 1.7 1.7 0.00 0.00 0.00 95 1006.9
20260505085817 53 179 1.7 1.7 0.00 0.00 0.00 95 1006.9
20260505085617 53 163 1.7 2.6 0.00 0.00 0.00 94 1006.9
20260505085417 53 151 1.7 2.6 0.00 0.00 0.00 94 1006.9
20260505085217 53 136 1.7 2.6 0.00 0.00 0.00 94 1006.9
20260505085014 53 161 1.7 2.6 0.00 0.00 0.00 94 1006.9
20260505084815 53 181 0.9 2.6 0.00 0.00 0.00 94 1006.9
20260505084613 53 186 0.9 2.6 0.00 0.00 0.00 94 1006.8
20260505084414 53 149 0.9 2.6 0.00 0.00 0.00 94 1006.9
20260505084214 53 156 1.7 2.6 0.00 0.00 0.00 94 1006.9
20260505084014 53 152 0.9 2.6 0.00 0.00 0.00 94 1006.9
20260505083815 53 153 1.7 2.6 0.00 0.00 0.00 94 1006.9
20260505083614 53 139 1.7 2.6 0.00 0.00 0.00 94 1006.9
20260505083414 53 155 1.7 2.6 0.00 0.00 0.00 94 1006.9
20260505083214 53 135 1.7 2.6 0.00 0.00 0.00 94 1006.9
20260505083013 53 177 1.7 2.6 0.00 0.00 0.00 94 1006.9
20260505082816 53 156 1.7 2.6 0.00 0.00 0.00 94 1006.9
20260505082614 53 325 1.7 2.6 0.00 0.00 0.00 94 1006.9
20260505082414 53 159 1.7 2.6 0.00 0.00 0.00 94 1006.9
20260505082214 53 145 1.7 2.6 0.00 0.00 0.00 94 1006.8
20260505082015 53 162 1.7 2.6 0.00 0.00 0.00 94 1006.8
20260505081816 53 157 1.7 3.5 0.00 0.00 0.00 94 1006.9
20260505081614 53 145 1.7 3.5 0.00 0.00 0.00 94 1006.9
20260505081414 53 162 1.7 3.5 0.00 0.00 0.00 94 1006.9
20260505081214 53 161 1.7 3.5 0.00 0.00 0.00 94 1006.9
20260505081014 53 159 1.7 3.5 0.00 0.00 0.00 94 1006.9
20260505080816 53 139 1.7 3.5 0.00 0.00 0.00 93 1006.9
20260505080615 53 153 1.7 3.5 0.00 0.00 0.00 93 1006.9
20260505080411 53 116 1.7 3.5 0.00 0.00 0.00 93 1006.9
20260505080211 53 122 1.7 3.5 0.00 0.00 0.00 93 1006.9
20260505080048 53 106 1.7 2.6 0.00 0.00 0.00 93 1006.9
20260505075810 53 134 1.7 2.6 0.00 0.00 0.00 93 1006.9
20260505075608 53 138 1.7 2.6 0.00 0.00 0.00 93 1006.9
20260505075455 53 156 1.7 2.6 0.00 0.00 0.00 93 1006.9
20260505075205 53 157 1.7 2.6 0.00 0.00 0.00 93 1006.9
20260505075006 53 131 1.7 2.6 0.00 0.00 0.00 93 1006.9
20260505074807 53 148 1.7 2.6 0.00 0.00 0.00 93 1006.9
20260505074606 53 137 0.9 2.6 0.00 0.00 0.00 93 1006.9
20260505074406 53 151 1.7 2.6 0.00 0.00 0.00 93 1006.9
20260505074205 53 260 1.7 2.6 0.00 0.00 0.00 93 1006.8
20260505074006 53 157 1.7 2.6 0.00 0.00 0.00 93 1006.8
20260505073807 53 159 1.7 2.6 0.00 0.00 0.00 93 1006.9
20260505073606 53 157 1.7 2.6 0.00 0.00 0.00 93 1006.9
20260505073406 53 141 1.7 2.6 0.00 0.00 0.00 93 1006.9
20260505073206 53 166 0.9 2.6 0.00 0.00 0.00 93 1006.9
20260505073006 53 155 1.7 3.5 0.00 0.00 0.00 93 1006.8
20260505072804 53 140 1.7 3.5 0.00 0.00 0.00 93 1006.9
20260505072604 53 159 1.7 3.5 0.00 0.00 0.00 93 1006.8
20260505072403 53 107 1.7 3.5 0.00 0.00 0.00 93 1006.8
20260505072203 53 137 1.7 3.5 0.00 0.00 0.00 93 1006.8
20260505072003 53 152 1.7 3.5 0.00 0.00 0.00 93 1006.9
20260505071803 53 174 1.7 2.6 0.00 0.00 0.00 93 1006.8
20260505071603 53 151 1.7 2.6 0.00 0.00 0.00 93 1006.9
20260505071403 53 173 1.7 3.5 0.00 0.00 0.00 93 1006.9
20260505071204 53 123 1.7 3.5 0.00 0.00 0.00 93 1006.9
20260505071003 53 277 1.7 3.5 0.00 0.00 0.00 93 1006.9
20260505070803 53 141 1.7 3.5 0.00 0.00 0.00 93 1006.8
20260505070603 53 142 1.7 3.5 0.00 0.00 0.00 93 1006.8
20260505070449 53 130 1.7 3.5 0.00 0.00 0.00 93 1006.8
20260505070203 53 154 0.9 2.6 0.00 0.00 0.00 92 1006.9
20260505070004 53 122 0.9 2.6 0.00 0.00 0.00 93 1006.9
20260505065803 53 156 0.9 2.6 0.00 0.00 0.00 92 1006.9
20260505065603 53 162 0.9 3.5 0.00 0.00 0.00 92 1006.9
20260505065403 53 178 0.9 3.5 0.00 0.00 0.00 92 1006.9
20260505065204 53 134 0.9 3.5 0.00 0.00 0.00 92 1006.9
20260505065004 53 141 1.7 3.5 0.00 0.00 0.00 92 1006.9
20260505064803 53 115 1.7 3.5 0.00 0.00 0.00 92 1006.9
20260505064603 53 154 1.7 3.5 0.00 0.00 0.00 92 1006.9
20260505064441 53 191 0.9 3.5 0.00 0.00 0.00 92 1006.9
20260505064217 53 130 0.9 3.5 0.00 0.00 0.00 92 1007.0
20260505064001 53 146 0.9 2.6 0.00 0.00 0.00 92 1007.0
20260505063801 54 119 0.9 3.5 0.00 0.00 0.00 92 1007.0
20260505063558 54 146 0.9 3.5 0.00 0.00 0.00 92 1007.0
20260505063358 54 173 1.7 3.5 0.00 0.00 0.00 92 1007.0
20260505063158 54 152 1.7 3.5 0.00 0.00 0.00 92 1007.0
20260505062957 54 136 1.7 3.5 0.00 0.00 0.00 92 1007.0
20260505062758 54 156 1.7 4.3 0.00 0.00 0.00 92 1007.0
20260505062558 54 161 1.7 4.3 0.00 0.00 0.00 92 1007.1
20260505062358 54 133 1.7 4.3 0.00 0.00 0.00 92 1007.1
20260505062158 54 119 1.7 4.3 0.00 0.00 0.00 92 1007.1
20260505061958 54 159 1.7 4.3 0.00 0.00 0.00 91 1007.1
20260505061800 54 137 1.7 4.3 0.00 0.00 0.00 91 1007.1
20260505061558 54 136 1.7 4.3 0.00 0.00 0.00 91 1007.1
20260505061358 54 171 1.7 4.3 0.00 0.00 0.00 91 1007.2
20260505061158 54 0 1.7 4.3 0.00 0.00 0.00 91 1007.2
20260505060955 54 150 1.7 4.3 0.00 0.00 0.00 91 1007.2
20260505060755 54 157 1.7 3.5 0.00 0.00 0.00 91 1007.2
20260505060555 54 163 1.7 3.5 0.00 0.00 0.00 91 1007.2
20260505060355 54 126 1.7 3.5 0.00 0.00 0.00 91 1007.2
20260505060155 54 149 1.7 3.5 0.00 0.00 0.00 91 1007.2
20260505055955 54 164 1.7 3.5 0.00 0.00 0.00 91 1007.2
20260505055756 54 154 1.7 3.5 0.00 0.00 0.00 91 1007.2
20260505055555 54 158 1.7 3.5 0.00 0.00 0.00 91 1007.3
20260505055355 54 92 1.7 3.5 0.00 0.00 0.00 90 1007.2
20260505055155 54 204 1.7 3.5 0.00 0.00 0.00 90 1007.3
20260505054956 54 159 1.7 3.5 0.00 0.00 0.00 90 1007.3
20260505054755 54 176 1.7 3.5 0.00 0.00 0.00 90 1007.3
20260505054555 54 181 1.7 3.5 0.00 0.00 0.00 90 1007.4
20260505054447 54 174 1.7 3.5 0.00 0.00 0.00 90 1007.4
20260505054155 54 186 1.7 3.5 0.00 0.00 0.00 90 1007.4
20260505053955 54 167 1.7 3.5 0.00 0.00 0.00 89 1007.4
20260505053756 54 133 1.7 3.5 0.00 0.00 0.00 89 1007.4
20260505053556 54 82 1.7 4.3 0.00 0.00 0.00 89 1007.4
20260505053355 54 155 1.7 4.3 0.00 0.00 0.00 89 1007.4
20260505053155 54 175 1.7 4.3 0.00 0.00 0.00 89 1007.4
20260505052956 54 183 1.7 4.3 0.00 0.00 0.00 89 1007.4
20260505052756 54 164 1.7 4.3 0.00 0.00 0.00 89 1007.4
20260505052555 54 173 1.7 4.3 0.00 0.00 0.00 88 1007.4
20260505052442 55 181 1.7 4.3 0.00 0.00 0.00 88 1007.4
20260505052154 55 144 1.7 4.3 0.00 0.00 0.00 88 1007.5
20260505051951 55 182 1.7 4.3 0.00 0.00 0.00 88 1007.5
20260505051752 55 173 1.7 4.3 0.00 0.00 0.00 88 1007.4
20260505051551 55 156 1.7 4.3 0.00 0.00 0.00 88 1007.5
20260505051351 55 198 1.7 3.5 0.00 0.00 0.00 87 1007.5
20260505051151 55 179 1.7 3.5 0.00 0.00 0.00 87 1007.5
20260505050951 55 165 1.7 3.5 0.00 0.00 0.00 87 1007.5
20260505050753 55 163 1.7 3.5 0.00 0.00 0.00 87 1007.5
20260505050551 55 172 1.7 3.5 0.00 0.00 0.00 87 1007.5
20260505050440 55 179 1.7 3.5 0.00 0.00 0.00 87 1007.5
20260505050151 55 160 1.7 3.5 0.00 0.00 0.00 86 1007.5
20260505041734 56 149 1.7 3.5 0.00 0.00 0.00 83 1007.8
20260505041535 56 153 1.7 3.5 0.00 0.00 0.00 83 1007.8
20260505041335 56 162 1.7 3.5 0.00 0.00 0.00 82 1007.9
20260505041134 56 142 1.7 3.5 0.00 0.00 0.00 82 1007.8
20260505040935 56 183 1.7 6.1 0.00 0.00 0.00 82 1007.8
20260505040735 56 176 1.7 6.1 0.00 0.00 0.00 81 1007.9
20260505040534 56 156 1.7 6.1 0.00 0.00 0.00 81 1007.9
20260505040335 56 188 1.7 6.1 0.00 0.00 0.00 80 1007.9
20260505040135 56 175 1.7 6.1 0.00 0.00 0.00 80 1007.8
20260505035935 56 175 2.6 6.1 0.00 0.00 0.00 80 1007.8
20260505035730 57 171 2.6 7.0 0.00 0.00 0.00 79 1007.8
20260505035530 57 187 2.6 7.0 0.00 0.00 0.00 78 1007.8
20260505035330 57 169 2.6 7.0 0.00 0.00 0.00 78 1007.8
20260505035131 57 187 2.6 7.0 0.00 0.00 0.00 78 1007.8
20260505034929 57 268 2.6 7.0 0.00 0.00 0.00 78 1007.8
20260505034729 57 194 2.6 7.0 0.00 0.00 0.00 78 1007.8
20260505034529 57 188 2.6 7.0 0.00 0.00 0.00 77 1007.8
20260505034329 57 189 2.6 7.0 0.00 0.00 0.00 77 1007.7
20260505034145 57 228 2.6 7.0 0.00 0.00 0.00 77 1007.7
20260505033929 57 186 1.7 6.1 0.00 0.00 0.00 77 1007.7
20260505033729 57 186 2.6 6.1 0.00 0.00 0.00 77 1007.7
20260505033529 57 148 2.6 6.1 0.00 0.00 0.00 77 1007.7
20260505033428 57 173 2.6 6.1 0.00 0.00 0.00 76 1007.7
20260505033129 57 184 2.6 6.1 0.00 0.00 0.00 76 1007.7
20260505032928 57 188 2.6 6.1 0.00 0.00 0.00 77 1007.7
20260505032728 57 187 2.6 6.1 0.00 0.00 0.00 77 1007.8
20260505032528 57 184 2.6 6.1 0.00 0.00 0.00 76 1007.8
20260505032328 57 182 2.6 6.1 0.00 0.00 0.00 77 1007.8
20260505032129 57 179 2.6 4.3 0.00 0.00 0.00 77 1007.8
20260505031928 57 189 2.6 4.3 0.00 0.00 0.00 77 1007.8
20260505031728 57 205 2.6 5.2 0.00 0.00 0.00 77 1007.8
20260505031528 57 198 2.6 5.2 0.00 0.00 0.00 77 1007.9
20260505031428 57 185 2.6 5.2 0.00 0.00 0.00 77 1007.9
20260505031128 57 179 2.6 5.2 0.00 0.00 0.00 77 1007.9
20260505030929 57 178 2.6 5.2 0.00 0.00 0.00 77 1007.9
20260505030728 57 190 2.6 5.2 0.00 0.00 0.00 76 1007.9
20260505030528 57 186 2.6 4.3 0.00 0.00 0.00 76 1007.9
20260505030129 57 145 2.6 5.2 0.00 0.00 0.00 76 1007.8
20260505025930 57 190 2.6 5.2 0.00 0.00 0.00 76 1007.9
20260505025728 57 190 1.7 5.2 0.00 0.00 0.00 76 1007.9
20260505025528 57 216 2.6 5.2 0.00 0.00 0.00 76 1007.9
20260505025428 57 193 2.6 5.2 0.00 0.00 0.00 76 1007.9